Location: Caltech
(34.1382°N, 118.1253°W)
Time: 03:19:29
(UTC-08:00)

Iridium 72 - Visible Passes

Search period start: 27 February 2017 00:00
Search period end: 09 March 2017 00:00
Orbit: 776 x 779 km, 86.4° (Epoch: 26 February)

Date Brightness Start Highest point End Pass type
(mag) Time Alt. Az. Time Alt. Az. Time Alt. Az.
27 Feb 6.0 18:25:59 10° NNE 18:30:48 37° E 18:35:36 10° SSE visible
27 Feb 8.0 20:07:28 10° NW 20:11:11 20° W 20:14:54 10° SW visible
28 Feb 7.0 19:33:05 10° NNW 19:37:54 38° W 19:42:41 10° SSW visible
01 Mar 5.7 18:59:16 10° N 19:04:29 76° W 19:09:40 10° S visible
02 Mar 5.6 18:25:50 10° N 18:30:57 56° E 18:36:04 10° SSE visible
02 Mar 8.6 20:08:41 10° NW 20:11:05 13° W 20:13:30 10° WSW visible
03 Mar 8.9 05:41:45 10° E 05:43:34 12° E 05:45:23 10° ENE visible
03 Mar 7.7 19:33:37 10° NNW 19:37:52 26° W 19:42:06 10° SW visible
04 Mar 6.5 18:59:30 10° NNW 19:04:32 50° W 19:09:32 10° SSW visible
05 Mar 5.5 18:25:50 10° N 18:31:05 84° E 18:36:18 10° S visible
06 Mar 8.6 05:40:01 10° ESE 05:43:27 18° E 05:46:53 10° NE visible
06 Mar 8.4 19:34:27 10° NW 19:37:48 17° W 19:41:09 10° WSW visible
07 Mar 7.4 18:59:54 10° NNW 19:04:32 33° W 19:09:10 10° SSW visible
08 Mar 6.1 18:25:59 10° N 18:31:10 66° W 18:36:18 10° S visible
